Location: Stuttgart
(48.8069°N, 9.1544°E)
Time: 04:26:09
(UTC+02:00)

ISS - Pass Details

Date: 17 May 2021
Orbit: 417 x 422 km, 51.6° (Epoch: 15 June)

Event Time Altitude Azimuth Distance (km) Brightness Sun altitude
Rises 03:40:37 0° 289° (WNW) 2,374 -0.1 -15.0°
Reaches altitude 10° 03:42:50 10° 279° (W) 1,508 -1.2 -14.8°
Maximum altitude 03:45:54 32° 215° (SW) 745 -3.1 -14.5°
Drops below altitude 10° 03:48:57 10° 150° (SSE) 1,502 -1.2 -14.2°
Sets 03:51:10 0° 140° (SE) 2,364 -0.1 -14.0°
